• In United Kingdom
  • List of Countries
  • For 7 days
  • Water Temperature
  • Satellite Maps
  • Weather Map
  • Weather Widgets
  • user-avatar
    Login

    Hourly Weather Herāt

    Today, 26 February, Monday

    Time Temperature Precipitation Wind Pressure Humidity
    00:00 +14°C° 1.2 mm 11 mps 673 mmHg 79%
    01:00 +13°C° 1.2 mm 11 mps 673 mmHg 80%
    02:00 +13°C° 1.6 mm 10 mps 673 mmHg 82%
    03:00 +13°C° 1.6 mm 10 mps 673 mmHg 83%
    04:00 +13°C° 1.6 mm 10 mps 673 mmHg 85%
    05:00 +12°C° 1.8 mm 8 mps 673 mmHg 86%
    06:00 +13°C° 1.8 mm 6 mps 673 mmHg 86%
    07:00 +12°C° 1.8 mm 5 mps 674 mmHg 87%
    08:00 +12°C° 1 mm 4 mps 674 mmHg 84%
    09:00 +12°C° 1 mm 4 mps 675 mmHg 81%
    10:00 +13°C° 1 mm 4 mps 675 mmHg 77%
    11:00 +13°C° 0.2 mm 4 mps 675 mmHg 70%
    12:00 +14°C° 0.2 mm 3 mps 676 mmHg 64%
    13:00 +16°C° 0.2 mm 3 mps 676 mmHg 57%
    14:00 +16°C° 0.1 mm 3 mps 676 mmHg 55%
    15:00 +16°C° 0.1 mm 3 mps 676 mmHg 53%
    16:00 +17°C° 0.1 mm 3 mps 676 mmHg 52%
    17:00 +16°C° 0.2 mm 3 mps 676 mmHg 56%
    18:00 +14°C° 0.2 mm 3 mps 677 mmHg 60%
    19:00 +13°C° 0.2 mm 3 mps 677 mmHg 64%
    20:00 +13°C° 0 mm 3 mps 677 mmHg 64%
    21:00 +13°C° 0 mm 3 mps 678 mmHg 64%
    22:00 +12°C° 0 mm 3 mps 678 mmHg 64%
    23:00 +12°C° 0 mm 3 mps 678 mmHg 63%

    Tomorrow, 27 February, Tuesday

    Time Temperature Precipitation Wind Pressure Humidity
    00:00 +12°C° 0 mm 3 mps 678 mmHg 61%
    01:00 +12°C° 0 mm 3 mps 678 mmHg 60%
    02:00 +13°C° 0 mm 2 mps 678 mmHg 59%
    03:00 +12°C° 0 mm 2 mps 678 mmHg 59%
    04:00 +12°C° 0 mm 2 mps 677 mmHg 59%
    05:00 +12°C° 0 mm 2 mps 678 mmHg 59%
    06:00 +12°C° 0 mm 2 mps 678 mmHg 59%
    07:00 +11°C° 0 mm 3 mps 678 mmHg 59%
    08:00 +13°C° 0 mm 3 mps 679 mmHg 53%
    09:00 +16°C° 0 mm 3 mps 679 mmHg 48%
    10:00 +18°C° 0 mm 3 mps 680 mmHg 43%
    11:00 +19°C° 0 mm 3 mps 679 mmHg 39%
    12:00 +19°C° 0 mm 3 mps 679 mmHg 36%
    13:00 +20°C° 0 mm 4 mps 679 mmHg 32%
    14:00 +20°C° 0 mm 3 mps 679 mmHg 31%
    15:00 +21°C° 0 mm 3 mps 678 mmHg 31%
    16:00 +21°C° 0 mm 3 mps 678 mmHg 31%
    17:00 +20°C° 0 mm 3 mps 678 mmHg 35%
    18:00 +18°C° 0 mm 2 mps 678 mmHg 40%
    19:00 +17°C° 0 mm 2 mps 678 mmHg 45%
    20:00 +17°C° 0 mm 2 mps 678 mmHg 46%
    21:00 +16°C° 0 mm 3 mps 678 mmHg 46%
    22:00 +16°C° 0 mm 3 mps 678 mmHg 47%
    23:00 +16°C° 0 mm 3 mps 678 mmHg 47%

    Day after tomorrow, 28 February, Wednesday

    Time Temperature Precipitation Wind Pressure Humidity
    00:00 +14°C° 0 mm 3 mps 677 mmHg 48%
    01:00 +14°C° 0 mm 4 mps 677 mmHg 48%
    02:00 +14°C° 0 mm 4 mps 677 mmHg 48%
    03:00 +14°C° 0 mm 4 mps 677 mmHg 48%
    04:00 +13°C° 0 mm 4 mps 676 mmHg 49%
    05:00 +14°C° 0 mm 4 mps 677 mmHg 48%
    06:00 +14°C° 0 mm 4 mps 677 mmHg 47%
    07:00 +14°C° 0 mm 4 mps 677 mmHg 47%
    08:00 +17°C° 0 mm 4 mps 677 mmHg 42%
    09:00 +19°C° 0 mm 4 mps 678 mmHg 37%
    10:00 +21°C° 0 mm 5 mps 678 mmHg 32%
    11:00 +21°C° 0 mm 5 mps 678 mmHg 32%
    12:00 +22°C° 0 mm 6 mps 677 mmHg 31%
    13:00 +23°C° 0 mm 6 mps 677 mmHg 31%
    14:00 +23°C° 0.1 mm 5 mps 677 mmHg 32%
    15:00 +22°C° 0.1 mm 5 mps 676 mmHg 34%
    16:00 +22°C° 0.1 mm 5 mps 676 mmHg 35%
    17:00 +21°C° 0.2 mm 4 mps 676 mmHg 41%
    18:00 +20°C° 0.2 mm 3 mps 676 mmHg 46%
    19:00 +19°C° 0.2 mm 2 mps 676 mmHg 52%
    20:00 +18°C° 0.6 mm 3 mps 676 mmHg 54%
    21:00 +17°C° 0.6 mm 3 mps 676 mmHg 57%
    22:00 +15°C° 0.6 mm 4 mps 676 mmHg 60%
    23:00 +16°C° 0.3 mm 3 mps 676 mmHg 62%

    1 March, Thursday

    Time Temperature Precipitation Wind Pressure Humidity
    00:00 +14°C° 0.3 mm 3 mps 676 mmHg 65%
    01:00 +14°C° 0.3 mm 3 mps 675 mmHg 67%
    02:00 +13°C° 0.3 mm 3 mps 675 mmHg 68%
    03:00 +13°C° 0.3 mm 3 mps 675 mmHg 70%
    04:00 +14°C° 0.3 mm 2 mps 675 mmHg 72%
    05:00 +14°C° 0.5 mm 2 mps 675 mmHg 72%
    06:00 +14°C° 0.5 mm 2 mps 675 mmHg 72%
    07:00 +14°C° 0.5 mm 2 mps 675 mmHg 72%
    08:00 +15°C° 0.4 mm 2 mps 676 mmHg 68%
    09:00 +16°C° 0.4 mm 2 mps 676 mmHg 64%
    10:00 +17°C° 0.4 mm 2 mps 677 mmHg 60%
    11:00 +17°C° 1 mm 3 mps 676 mmHg 59%
    12:00 +17°C° 1 mm 3 mps 676 mmHg 59%
    13:00 +18°C° 1 mm 3 mps 675 mmHg 58%
    14:00 +17°C° 0.9 mm 3 mps 675 mmHg 58%
    15:00 +17°C° 0.9 mm 3 mps 675 mmHg 58%
    16:00 +17°C° 0.9 mm 3 mps 675 mmHg 59%
    17:00 +16°C° 0.6 mm 3 mps 675 mmHg 63%
    18:00 +16°C° 0.6 mm 2 mps 675 mmHg 67%
    19:00 +15°C° 0.6 mm 2 mps 676 mmHg 71%
    20:00 +14°C° 0.1 mm 2 mps 676 mmHg 74%
    21:00 +14°C° 0.1 mm 2 mps 676 mmHg 76%
    22:00 +13°C° 0.1 mm 1 mps 676 mmHg 78%
    23:00 +13°C° 0.1 mm 1 mps 676 mmHg 78%

    2 March, Friday

    Time Temperature Precipitation Wind Pressure Humidity
    00:00 +13°C° 0.1 mm 1 mps 676 mmHg 79%
    01:00 +12°C° 0.1 mm 1 mps 675 mmHg 79%
    02:00 +12°C° 0 mm 1 mps 675 mmHg 80%
    03:00 +12°C° 0 mm 1 mps 675 mmHg 81%
    04:00 +11°C° 0 mm 1 mps 675 mmHg 82%
    05:00 +11°C° 0 mm 1 mps 675 mmHg 82%
    06:00 +11°C° 0 mm 1 mps 675 mmHg 81%
    07:00 +11°C° 0 mm 1 mps 676 mmHg 80%
    08:00 +13°C° 0 mm 1 mps 676 mmHg 71%
    09:00 +14°C° 0 mm 1 mps 676 mmHg 62%
    10:00 +16°C° 0 mm 1 mps 677 mmHg 53%
    11:00 +17°C° 0.1 mm 2 mps 677 mmHg 49%
    12:00 +17°C° 0.1 mm 3 mps 676 mmHg 44%
    13:00 +18°C° 0.1 mm 4 mps 676 mmHg 40%
    14:00 +19°C° 0.3 mm 4 mps 676 mmHg 39%
    15:00 +19°C° 0.3 mm 4 mps 676 mmHg 38%
    16:00 +19°C° 0.3 mm 4 mps 676 mmHg 37%
    17:00 +18°C° 0.2 mm 4 mps 676 mmHg 41%
    18:00 +17°C° 0.2 mm 3 mps 676 mmHg 44%
    19:00 +16°C° 0.2 mm 2 mps 677 mmHg 48%
    20:00 +16°C° 0.1 mm 2 mps 677 mmHg 50%
    21:00 +15°C° 0.1 mm 2 mps 677 mmHg 52%
    22:00 +15°C° 0.1 mm 2 mps 677 mmHg 54%
    23:00 +14°C° 0.1 mm 2 mps 677 mmHg 55%

    3 March, Saturday

    Time Temperature Precipitation Wind Pressure Humidity
    00:00 +14°C° 0.1 mm 2 mps 677 mmHg 55%
    01:00 +13°C° 0.1 mm 2 mps 677 mmHg 56%
    02:00 +13°C° 0 mm 2 mps 678 mmHg 55%
    03:00 +13°C° 0 mm 2 mps 678 mmHg 54%
    04:00 +12°C° 0 mm 2 mps 678 mmHg 53%
    05:00 +12°C° 0 mm 2 mps 678 mmHg 54%
    06:00 +12°C° 0 mm 2 mps 678 mmHg 54%
    07:00 +12°C° 0 mm 2 mps 679 mmHg 55%
    08:00 +13°C° 0 mm 2 mps 679 mmHg 49%
    09:00 +14°C° 0 mm 3 mps 680 mmHg 43%
    10:00 +16°C° 0 mm 3 mps 680 mmHg 36%
    11:00 +17°C° 0 mm 2 mps 680 mmHg 33%
    12:00 +18°C° 0 mm 2 mps 680 mmHg 31%
    13:00 +20°C° 0 mm 1 mps 679 mmHg 28%
    14:00 +19°C° 0 mm 2 mps 679 mmHg 27%
    15:00 +19°C° 0 mm 2 mps 679 mmHg 27%
    16:00 +19°C° 0 mm 2 mps 679 mmHg 26%
    17:00 +18°C° 0 mm 2 mps 679 mmHg 31%
    18:00 +18°C° 0 mm 1 mps 679 mmHg 35%
    19:00 +16°C° 0 mm 1 mps 679 mmHg 40%
    20:00 +16°C° 0 mm 1 mps 679 mmHg 40%
    21:00 +15°C° 0 mm 1 mps 679 mmHg 40%
    22:00 +15°C° 0 mm 1 mps 679 mmHg 41%
    23:00 +14°C° 0 mm 2 mps 679 mmHg 40%
    Show more